Location: Pinhead Observatory
(34.4473°N, 118.1985°W)
Time: 10:59:58
(UTC-07:00)

Daily predictions for brighter satellites

Satellite Brightness Start Highest point End
(mag) Time Altitude Azimuth Time Altitude Azimuth Time Altitude Azimuth
Cosmos 1980 Rocket 4.2 19:53:07 10° SW 19:58:16 35° WNW 20:03:29 10° N
COSMOS 2428 4.5 19:59:25 10° ESE 20:00:16 10° E 20:01:07 10° E
Cosmos 1408 3.6 19:58:45 10° NNE 20:01:57 27° E 20:05:06 10° SE
Envisat 4.4 19:58:37 10° ESE 20:02:15 20° ENE 20:05:55 10° NNE
Lacrosse 4 Rocket 1.9 19:58:30 10° NNW 20:02:42 46° ENE 20:06:57 10° SE
Cosmos 2242 Rocket 3.9 19:58:32 10° SSE 20:02:50 45° E 20:07:07 10° NNE
Helios 1B rocket 3.5 20:02:07 10° NE 20:05:27 24° E 20:08:46 10° SSE
SJ-6B 3.5 20:04:43 10° S 20:08:36 58° W 20:12:35 10° NNW
ERBS 2.8 20:06:00 10° NW 20:09:26 61° SW 20:12:51 10° SSE
ATLAS 5 CENTAUR R/B 3.6 20:06:50 10° N 20:11:55 27° NE 20:17:14 10° ESE
SEDSat Delta rocket 3.5 20:07:47 10° WSW 20:12:33 63° S 20:18:04 10° E
Cosmos 2322 4.4 20:10:17 10° SSE 20:15:17 32° ESE 20:20:17 10° NE
Cosmos 2279 Rocket 4.2 20:11:45 10° SSE 20:17:44 51° E 20:23:43 10° NNE
Cosmos 2195 Rocket 4.5 20:12:35 10° N 20:18:40 65° E 20:24:46 10° SSE
SL-16 R/B 2.6 20:14:44 10° SSW 20:20:22 69° WNW 20:26:02 10° NNE
Intercosmos 25 Rocket 3.1 20:17:18 10° S 20:20:23 55° E 20:24:13 10° NNE
CZ-2D R/B 3.3 20:16:33 10° SSE 20:20:24 64° ENE 20:24:15 10° N
GRACE-1 4.4 20:18:16 10° N 20:20:58 60° W 20:23:39 10° SSW
GRACE-2 4.4 20:18:37 10° N 20:21:20 61° W 20:24:01 10° SSW
Cosmos 1627 Rocket 4.5 20:16:36 10° N 20:22:45 68° E 20:28:49 10° SSE
Resurs 01 Rocket 1.7 20:21:37 10° SSE 20:26:04 86° W 20:30:32 10° NNW
FALCON 9 R/B 0.1 20:27:06 10° W 20:29:59 86° N 20:31:21 20° E
Sakura Rocket 3.7 20:28:29 10° SW 20:31:43 29° SSE 20:33:51 18° ESE
Cosmos 1315 Rocket 4.3 20:28:32 10° NNW 20:32:18 38° W 20:36:00 10° SSW
Cosmos 1933 3.2 20:35:54 10° S 20:39:54 68° E 20:43:54 10° NNE
ALOS 4.2 20:36:00 10° SSW 20:40:04 30° W 20:44:10 10° NW
OAO 3 Rocket 3.2 20:37:16 10° W 20:42:09 85° S 20:45:28 21° ESE
NOSS 3-1 (C) 4.4 20:41:21 17° SE 20:43:27 21° ESE 20:47:45 10° ENE
Cosmos 2180 Rocket 4.5 20:42:35 10° S 20:48:57 77° E 20:55:17 10° N
USA 229 DEB 3.6 20:42:26 10° SSW 20:49:10 69° ESE 20:56:01 10° NE
USA 229 3.6 20:42:33 10° SSW 20:49:17 68° ESE 20:56:08 10° NE
Meteor 2-10 Rocket 3.8 20:48:00 10° S 20:53:44 64° E 20:59:27 10° NNE
Cosmos 1733 Rocket 3.1 20:50:58 10° N 20:55:26 84° W 20:59:26 13° S
Helios 1A 2.9 20:52:16 17° SSE 20:55:31 85° ENE 20:59:47 10° N
Cosmos 1862 3.4 20:53:53 10° N 20:57:55 78° W 21:01:11 15° S
Okean 1-7 4.1 20:57:49 26° E 20:57:58 26° E 21:01:38 10° NNE
Cosmos 2219 Rocket 3.5 21:01:36 20° E 21:01:36 20° E 21:04:43 10° NE
Cosmos 1862 Rocket 4.2 20:57:29 10° SSW 21:01:52 58° W 21:06:18 10° N
Milstar 3 3.4 20:56:04 10° W 21:04:02 45° SSW 21:07:27 26° SE
USA 186 3.5 21:05:47 12° SSW 21:07:52 26° W 21:10:23 10° NW
SAR-Lupe-4 4.2 21:11:46 25° S 21:13:37 54° WSW 21:17:09 10° NNW
Meteor 1-26 Rocket 4.2 21:08:40 10° S 21:14:20 82° E 21:20:09 10° N
Cosmos 1939 Rocket 2.9 21:15:13 34° S 21:16:54 80° W 21:20:54 10° NNW
Cosmos 1703 Rocket 3.4 21:20:31 31° S 21:22:35 84° E 21:27:01 10° N
Cosmos 2263 Rocket 2.8 21:19:49 10° NNW 21:25:13 53° WSW 21:28:38 22° S
Cosmos 968 Rocket 3.4 21:22:12 10° NNW 21:27:26 87° ENE 21:29:10 44° SSE
CZ-4B DEB 3.9 21:27:17 33° WSW 21:27:44 35° W 21:30:34 10° NNW
Cosmos 2237 4.4 21:28:34 10° SSW 21:34:16 73° WNW 21:40:01 10° NNE
H-2A R/B 4.1 13:41:06 10° SSW 21:38:12 70° S 21:43:18 35° ESE
Envisat 4.1 21:37:33 18° SSW 21:40:57 39° W 21:45:43 10° NNW
Lacrosse 4 Rocket 4.2 21:38:52 10° WNW 21:40:59 13° WSW 21:43:07 10° SW
Cosmos 2360 Rocket 3.7 21:36:06 10° SW 21:41:14 36° WNW 21:46:26 10° N
MetOp-B 4.1 21:40:39 55° ESE 21:41:16 59° ENE 21:46:31 10° N
Atlas Centaur 2 2.8 21:35:37 10° W 21:42:19 65° S 21:44:38 46° ESE
COSMOS 2428 2.7 21:38:01 10° SSW 21:43:42 81° WNW 21:49:25 10° NNE
Cosmos 2221 Rocket 3.8 21:46:52 55° SW 21:47:38 67° W 21:52:03 10° N
YAOGAN 11 4.4 21:48:43 56° NNE 21:48:43 56° NNE 21:52:24 10° N
USA 234 3.3 21:46:49 46° ESE 21:48:45 68° NE 21:55:15 10° NW
H-2A R/B 3.2 21:49:47 28° NE 21:49:47 28° NE 21:53:10 10° N
Meteor 1-10 Rocket 4.3 21:48:38 58° ESE 21:48:56 59° E 21:54:43 10° NNE
Cosmos 1867 3.8 21:45:54 10° NW 21:51:17 62° WSW 21:52:15 52° SSW
NOAA 11 4.0 21:52:39 69° SE 21:53:18 81° ENE 21:58:48 10° N
Cosmos 2266 Rocket 4.2 21:47:29 10° N 21:53:47 72° W 21:56:19 38° SSW
ATLAS 5 CENTAUR R/B 3.0 21:50:53 10° NW 21:56:54 53° WSW 21:58:49 40° SSW
Cosmos 1844 4.3 21:53:18 10° N 21:58:22 42° NE 21:58:22 42° NE
SEDSat Delta rocket 3.9 21:53:36 10° W 21:58:14 51° SSW 21:58:14 51° SSW
NOSS 0 Rocket 4.4 22:00:11 44° ENE 22:00:11 44° ENE 22:04:43 10° NNE
ARGOS 3.1 22:00:30 68° ENE 22:00:30 68° ENE 22:05:44 10° N
MOS 1-B Rocket 3.8 22:00:06 65° E 22:00:26 66° ENE 22:06:01 10° N
Cosmos 1570 Rocket 4.3 22:03:08 55° NE 22:03:08 55° NE 22:07:20 10° NNE
ERS-1 Rocket 3.4 22:02:01 48° SW 22:02:48 54° W 22:07:44 10° NNW
SeaSat 1 3.4 22:04:32 37° NE 22:04:32 37° NE 22:08:25 10° N
Meteor 1-25 Rocket 4.1 21:59:18 10° N 22:04:52 79° W 22:05:21 72° SSW
H-2A R/B 4.2 22:08:08 17° NNE 22:08:08 17° NNE 22:09:33 10° NNE
Cosmos 2208 Rocket 4.4 22:13:58 56° NNE 22:13:58 56° NNE 22:18:08 10° NNE
Meteor 1-20 Rocket 4.2 22:08:36 10° NNW 22:14:13 74° W 22:14:27 72° WSW
SPOT 5 3.3 22:18:27 57° NW 22:18:27 57° NW 22:22:13 10° NNW
Cosmos 2237 Rocket 3.3 22:22:05 34° NE 22:22:05 34° NE 22:25:17 10° NNE
Cosmos 1244 Rocket 4.4 22:14:47 10° N 22:21:02 85° ENE 22:21:02 85° ENE
Cosmos 2333 Rocket 2.4 22:23:51 68° N 22:23:51 68° N 22:28:54 10° NNE
Cosmos 1553 Rocket 4.1 22:26:20 62° NE 22:26:20 62° NE 22:31:39 10° N
Meteor 2-6 Rocket 4.4 22:25:54 72° W 22:26:06 72° W 22:32:04 10° N
Cosmos 1844 Rocket 2.9 22:21:13 10° NNW 22:26:05 68° NW 22:26:05 68° NW
Cosmos 2278 Rocket 3.2 22:23:16 10° N 22:27:20 36° NNE 22:27:20 36° NNE
NOSS 3-1 (C) 4.1 22:28:11 10° SW 22:33:40 49° NW 22:39:46 10° NNE
Gbstr 26 Del rocket 4.4 22:27:24 10° SW 22:35:02 89° NW 22:43:16 10° NE
SPOT 1/Viking Rocket 4.2 22:37:50 52° NW 22:37:50 52° NW 22:41:52 10° NNW
CZ-4C R/B 3.3 22:35:01 10° NNW 22:42:06 51° NE 22:42:12 51° ENE
Cosmos 2219 Rocket 3.2 22:43:11 39° W 22:44:09 42° WNW 22:49:29 10° N
NOSS 3-1 (A) 4.0 22:49:49 49° WNW 22:50:24 51° NW 22:56:34 10° NNE
ATLAS 2AS CENTAUR R/B 4.4 22:55:31 23° ENE 22:55:31 23° ENE 22:58:36 10° NE
S3M 4.4 22:57:45 57° NW 22:57:45 57° NW 23:02:56 10° N
Terra 3.7 23:02:47 27° NNW 23:02:47 27° NNW 23:04:56 10° NNW
ATLAS 3B R/B 4.4 23:17:21 10° N 23:22:11 20° NE 23:22:22 20° NE
H-2A R/B 4.3 23:30:25 19° WNW 23:30:25 19° WNW 23:32:19 10° NW
Atlas Centaur 2 4.4 23:24:36 10° W 23:27:16 24° WSW 23:27:16 24° WSW
SL-16 R/B 4.1 23:45:56 26° N 23:45:56 26° N 23:48:21 10° NNE
